| time (UTC) | temp F | wind direction | speed knots | gust knots | rain 1hr in | rain 24hr in | rain mn in | humidity % | barometer mb |
| 20260507033042 | 74 | 191 | 1.7 | 2.6 | 0.00 | 0.00 | 0.00 | 37 | 1011.2 |
| 20260507031544 | 76 | 204 | 0.0 | 1.7 | 0.00 | 0.00 | 0.00 | 36 | 1011.2 |
| 20260507030038 | 77 | 204 | 0.9 | 2.6 | 0.00 | 0.00 | 0.00 | 36 | 1010.9 |
| 20260507024546 | 79 | 187 | 0.9 | 3.5 | 0.00 | 0.00 | 0.00 | 37 | 1010.8 |
| 20260507023038 | 81 | 205 | 0.9 | 1.7 | 0.00 | 0.00 | 0.00 | 34 | 1010.7 |
| 20260507021553 | 82 | 206 | 0.9 | 2.6 | 0.00 | 0.00 | 0.00 | 32 | 1010.3 |
| 20260507020045 | 82 | 128 | 0.0 | 6.1 | 0.00 | 0.00 | 0.00 | 31 | 1010.4 |
| 20260507014539 | 82 | 100 | 3.5 | 7.8 | 0.00 | 0.00 | 0.00 | 29 | 1010.3 |
| 20260507013041 | 83 | 134 | 5.2 | 9.6 | 0.00 | 0.00 | 0.00 | 30 | 1010.3 |
| 20260507011538 | 83 | 121 | 6.1 | 8.7 | 0.00 | 0.00 | 0.00 | 29 | 1010.2 |
| 20260507010043 | 84 | 101 | 4.3 | 10.4 | 0.00 | 0.00 | 0.00 | 28 | 1010.3 |
| 20260507004544 | 84 | 96 | 6.1 | 9.6 | 0.00 | 0.00 | 0.00 | 27 | 1010.3 |
| 20260507003044 | 85 | 141 | 5.2 | 10.4 | 0.00 | 0.00 | 0.00 | 27 | 1010.2 |
| 20260507001540 | 85 | 78 | 7.0 | 11.3 | 0.00 | 0.00 | 0.00 | 26 | 1010.2 |
| 20260507000038 | 85 | 96 | 6.1 | 11.3 | 0.00 | 0.00 | 0.00 | 24 | 1010.0 |
| 20260506234548 | 85 | 92 | 6.1 | 12.2 | 0.00 | 0.00 | 0.00 | 26 | 1010.1 |
| 20260506233036 | 85 | 76 | 6.1 | 12.2 | 0.00 | 0.00 | 0.00 | 26 | 1010.1 |
| 20260506231541 | 85 | 104 | 6.1 | 12.2 | 0.00 | 0.00 | 0.00 | 26 | 1010.2 |
| 20260506230043 | 85 | 99 | 7.0 | 11.3 | 0.00 | 0.00 | 0.00 | 26 | 1010.4 |
| 20260506224537 | 85 | 120 | 5.2 | 12.2 | 0.00 | 0.00 | 0.00 | 27 | 1010.7 |
| 20260506223036 | 85 | 110 | 7.0 | 13.0 | 0.00 | 0.00 | 0.00 | 28 | 1010.9 |
| 20260506221541 | 85 | 121 | 7.0 | 11.3 | 0.00 | 0.00 | 0.00 | 27 | 1010.9 |
| 20260506220045 | 85 | 112 | 7.0 | 10.4 | 0.00 | 0.00 | 0.00 | 27 | 1011.3 |
| 20260506214543 | 85 | 103 | 6.1 | 11.3 | 0.00 | 0.00 | 0.00 | 27 | 1011.5 |
| 20260506213036 | 84 | 111 | 6.1 | 11.3 | 0.00 | 0.00 | 0.00 | 27 | 1011.7 |
| 20260506211536 | 84 | 101 | 6.1 | 9.6 | 0.00 | 0.00 | 0.00 | 27 | 1011.8 |
| 20260506210045 | 84 | 127 | 4.3 | 8.7 | 0.00 | 0.00 | 0.00 | 30 | 1012.1 |
| 20260506204552 | 83 | 127 | 5.2 | 11.3 | 0.00 | 0.00 | 0.00 | 29 | 1012.4 |
| 20260506203040 | 84 | 138 | 5.2 | 9.6 | 0.00 | 0.00 | 0.00 | 29 | 1012.6 |
| 20260506201546 | 83 | 91 | 5.2 | 10.4 | 0.00 | 0.00 | 0.00 | 28 | 1012.9 |
| 20260506200036 | 84 | 100 | 3.5 | 9.6 | 0.00 | 0.00 | 0.00 | 29 | 1013.1 |
| 20260506194549 | 83 | 124 | 4.3 | 8.7 | 0.00 | 0.00 | 0.00 | 31 | 1013.4 |
| 20260506193041 | 82 | 106 | 3.5 | 8.7 | 0.00 | 0.00 | 0.00 | 30 | 1013.5 |
| 20260506191540 | 83 | 154 | 2.6 | 9.6 | 0.00 | 0.00 | 0.00 | 35 | 1013.7 |
| 20260506190038 | 82 | 126 | 1.7 | 7.0 | 0.00 | 0.00 | 0.00 | 32 | 1013.9 |
| 20260506184541 | 81 | 170 | 2.6 | 7.0 | 0.00 | 0.00 | 0.00 | 34 | 1013.9 |
| 20260506183059 | 82 | 74 | 3.5 | 6.1 | 0.00 | 0.00 | 0.00 | 35 | 1014.1 |
| 20260506181552 | 80 | 84 | 0.9 | 3.5 | 0.00 | 0.00 | 0.00 | 31 | 1014.3 |
| 20260506180041 | 79 | 51 | 3.5 | 7.0 | 0.00 | 0.00 | 0.00 | 31 | 1014.4 |
| 20260506174536 | 79 | 159 | 2.6 | 6.1 | 0.00 | 0.00 | 0.00 | 35 | 1014.3 |
| 20260506173037 | 77 | 29 | 2.6 | 7.0 | 0.00 | 0.00 | 0.00 | 34 | 1014.4 |
| 20260506171547 | 77 | 104 | 1.7 | 7.8 | 0.00 | 0.00 | 0.00 | 37 | 1014.3 |
| 20260506170047 | 76 | 171 | 0.9 | 3.5 | 0.00 | 0.00 | 0.00 | 37 | 1014.5 |
| 20260506164546 | 75 | 203 | 1.7 | 5.2 | 0.00 | 0.00 | 0.00 | 38 | 1014.6 |
| 20260506163046 | 74 | 240 | 1.7 | 6.1 | 0.00 | 0.00 | 0.00 | 40 | 1014.8 |
| 20260506161551 | 72 | 291 | 1.7 | 5.2 | 0.00 | 0.00 | 0.00 | 42 | 1014.7 |
| 20260506160047 | 71 | 251 | 0.0 | 3.5 | 0.00 | 0.00 | 0.00 | 45 | 1014.6 |
| 20260506154545 | 70 | 249 | 1.7 | 5.2 | 0.00 | 0.00 | 0.00 | 47 | 1014.6 |
| 20260506153039 | 68 | 257 | 2.6 | 5.2 | 0.00 | 0.00 | 0.00 | 48 | 1014.6 |
| 20260506151600 | 67 | 327 | 2.6 | 5.2 | 0.00 | 0.00 | 0.00 | 50 | 1014.6 |
| 20260506150045 | 66 | 323 | 3.5 | 7.0 | 0.00 | 0.00 | 0.00 | 52 | 1014.5 |
| 20260506144544 | 65 | 298 | 3.5 | 6.1 | 0.00 | 0.00 | 0.00 | 55 | 1014.6 |
| 20260506143048 | 63 | 294 | 2.6 | 6.1 | 0.00 | 0.00 | 0.00 | 58 | 1014.5 |
| 20260506141536 | 61 | 311 | 2.6 | 6.1 | 0.00 | 0.00 | 0.00 | 64 | 1014.3 |
| 20260506140056 | 59 | 286 | 1.7 | 3.5 | 0.00 | 0.00 | 0.00 | 69 | 1014.2 |
| 20260506134545 | 56 | 295 | 1.7 | 2.6 | 0.00 | 0.00 | 0.00 | 71 | 1014.0 |
| 20260506133047 | 55 | 277 | 0.9 | 2.6 | 0.00 | 0.00 | 0.00 | 70 | 1013.7 |
| 20260506131539 | 54 | 275 | 0.9 | 2.6 | 0.00 | 0.00 | 0.00 | 69 | 1013.6 |
| 20260506130039 | 54 | 283 | 1.7 | 2.6 | 0.00 | 0.00 | 0.00 | 69 | 1013.3 |
| 20260506124537 | 54 | 267 | 1.7 | 2.6 | 0.00 | 0.00 | 0.00 | 68 | 1013.1 |
| 20260506123036 | 55 | 248 | 0.9 | 1.7 | 0.00 | 0.00 | 0.00 | 68 | 1012.9 |
| 20260506121543 | 55 | 278 | 0.9 | 1.7 | 0.00 | 0.00 | 0.00 | 67 | 1012.8 |
| 20260506120043 | 55 | 278 | 0.9 | 2.6 | 0.00 | 0.00 | 0.00 | 67 | 1012.8 |
| 20260506114542 | 55 | 260 | 0.9 | 2.6 | 0.00 | 0.00 | 0.00 | 66 | 1012.8 |
| 20260506113045 | 56 | 276 | 1.7 | 2.6 | 0.00 | 0.00 | 0.00 | 66 | 1012.7 |
| 20260506111542 | 55 | 266 | 1.7 | 2.6 | 0.00 | 0.00 | 0.00 | 65 | 1012.5 |
| 20260506110050 | 56 | 273 | 1.7 | 2.6 | 0.00 | 0.00 | 0.00 | 64 | 1012.5 |
| 20260506104537 | 56 | 271 | 1.7 | 2.6 | 0.00 | 0.00 | 0.00 | 62 | 1012.6 |
| 20260506103041 | 58 | 269 | 0.9 | 2.6 | 0.00 | 0.00 | 0.00 | 60 | 1012.5 |
| 20260506101552 | 59 | 270 | 1.7 | 3.5 | 0.00 | 0.00 | 0.00 | 58 | 1012.4 |
| 20260506100046 | 60 | 296 | 2.6 | 7.8 | 0.00 | 0.00 | 0.00 | 57 | 1012.5 |
| 20260506094547 | 60 | 306 | 4.3 | 7.8 | 0.00 | 0.00 | 0.00 | 58 | 1012.4 |
| 20260506093036 | 60 | 286 | 2.6 | 7.0 | 0.00 | 0.00 | 0.00 | 58 | 1012.4 |
| 20260506091536 | 60 | 292 | 3.5 | 7.0 | 0.00 | 0.00 | 0.00 | 58 | 1012.5 |
| 20260506090037 | 59 | 295 | 3.5 | 6.1 | 0.00 | 0.00 | 0.00 | 59 | 1012.4 |
| 20260506084539 | 59 | 310 | 2.6 | 5.2 | 0.00 | 0.00 | 0.00 | 59 | 1012.5 |
| 20260506083041 | 59 | 284 | 1.7 | 2.6 | 0.00 | 0.00 | 0.00 | 59 | 1012.7 |
| 20260506081536 | 59 | 281 | 1.7 | 3.5 | 0.00 | 0.00 | 0.00 | 57 | 1012.7 |
| 20260506073046 | 62 | 315 | 1.7 | 4.3 | 0.00 | 0.00 | 0.00 | 51 | 1012.5 |
| 20260506071555 | 63 | 317 | 1.7 | 4.3 | 0.00 | 0.00 | 0.00 | 49 | 1012.5 |
| 20260506061541 | 65 | 306 | 2.6 | 7.0 | 0.00 | 0.00 | 0.00 | 48 | 1011.9 |
| 20260506044542 | 68 | 314 | 4.3 | 9.6 | 0.00 | 0.00 | 0.00 | 44 | 1010.7 |
| 20260506043037 | 68 | 332 | 7.0 | 12.2 | 0.00 | 0.00 | 0.00 | 43 | 1010.5 |
| 20260506041546 | 68 | 352 | 7.8 | 13.0 | 0.00 | 0.00 | 0.00 | 42 | 1010.3 |
| 20260506040035 | 69 | 309 | 9.6 | 14.8 | 0.00 | 0.00 | 0.00 | 42 | 1010.0 |
| 20260506034545 | 70 | 319 | 8.7 | 16.5 | 0.00 | 0.00 | 0.00 | 41 | 1009.8 |